Hourly Data Report for October 04, 2017

All times are specified in Local Standard Time (LST). Add 1 hour to adjust for Daylight Saving Time where and when it is observed.

FORT PROVIDENCE
NORTHWEST TERRITORIES

61°19'01.000" N
117°36'07.000" W
161.50 m
2201799
71087
WID

Download Data

Hourly Data (October 2017)
Hourly Data Report for October 4, 2017
Temp Definition
°C
Dew Point Temp Definition
°C
Rel Hum Definition
%
Wind Dir Definition
10's deg

Wind Spd Definition
km/h
Visibility Definition
km
Stn Press Definition
kPa
Hmdx Definition


Wind Chill Definition


Weather Definition


TIME
00:00 -0.7 -2.3 89 2 1   100.19   -1 LegendNANA
01:00 -0.8 -2.1 91   0   100.26     LegendNANA
02:00 -2.0 -3.2 91   0   100.28     LegendNANA
03:00 -2.3 -3.3 93   0   100.28     LegendNANA
04:00 -2.5 -3.5 93 2 2   100.29   -3 LegendNANA
05:00 -2.6 -3.5 93 9 4   100.28   -4 LegendNANA
06:00 -2.6 -3.6 93 11 4   100.27   -4 LegendNANA
07:00 -2.3 -3.3 93 11 5   100.26   -4 LegendNANA
08:00 -0.7 -1.6 94 10 4   100.22   -2 LegendNANA
09:00 1.4 0.1 91 9 5   100.16     LegendNANA
10:00 3.3 0.7 83 9 6   100.10     LegendNANA
11:00 5.4 1.3 75 11 9   100.08     LegendNANA
12:00 6.3 1.7 72 10 5   100.05     LegendNANA
13:00 7.4 2.1 69 9 7   99.95     LegendNANA
14:00 7.6 2.6 71 10 7   99.92     LegendNANA
15:00 8.9 2.1 62 11 9   99.90     LegendNANA
16:00 9.3 2.5 62 10 10   99.86     LegendNANA
17:00 8.3 2.6 68 10 7   99.85     LegendNANA
18:00 6.8 3.1 77 10 8   99.80     LegendNANA
19:00 6.2 3.1 80 10 8   99.80     LegendNANA
20:00 5.8 2.8 81 9 8   99.74     LegendNANA
21:00 5.4 2.8 84 9 5   99.71     LegendNANA
22:00 4.5 2.4 87 7 5   99.64     LegendNANA
23:00 3.8 2.3 90 8 7   99.57     LegendNANA

Notes on Data Quality.

Legend

  • E = Estimated
  • M = Missing
  • NA = Not Available
  • ‡ = Partner data that is not subject to review by the National Climate Archives
Date modified: